KA0WUC-13 Weather Reports


time (UTC)temp
C
wind
direction
speed
KPH
gust
KPH
rain 1hr
cm
rain 24hr
cm
rain mn
cm
humidity
%
barometer
mb
20260508014017 21 359 3.2 4.8 0.00 0.00 0.00 25 1012.0
20260508013015 22 186 3.2 6.4 0.00 0.00 0.00 23 1012.0
20260508012016 23 186 3.2 11.3 0.00 0.00 0.00 22 1012.0
20260508011014 23 12 3.2 8.0 0.00 0.00 0.00 20 1012.0
20260508010016 24 158 4.8 9.7 0.00 0.00 0.00 19 1012.2
20260508005036 24 184 3.2 8.0 0.00 0.00 0.00 19 1012.1
20260508004016 24 211 6.4 14.5 0.00 0.00 0.00 18 1012.1
20260508003016 25 209 3.2 14.5 0.00 0.00 0.00 18 1012.2
20260508002017 25 210 4.8 16.1 0.00 0.00 0.00 17 1012.3
20260508001016 25 220 4.8 14.5 0.00 0.00 0.00 17 1012.6
20260508000016 25 251 4.8 12.9 0.00 0.00 0.00 17 1012.4
20260507235016 25 253 3.2 16.1 0.00 0.00 0.00 17 1012.6
20260507234036 25 360 9.7 25.7 0.00 0.00 0.00 17 1012.6
20260507233016 25 196 3.2 14.5 0.00 0.00 0.00 16 1012.8
20260507232016 25 196 6.4 12.9 0.00 0.00 0.00 17 1013.0
20260507231016 24 251 11.3 20.9 0.00 0.00 0.00 17 1013.2
20260507230016 24 257 8.0 22.5 0.00 0.03 0.00 17 1013.2
20260507225016 24 256 9.7 22.5 0.00 0.03 0.00 16 1013.3
20260507224016 25 261 6.4 14.5 0.00 0.03 0.00 17 1013.7
20260507223016 24 283 8.0 22.5 0.00 0.03 0.00 17 1013.5
20260507222016 25 264 9.7 19.3 0.00 0.03 0.00 17 1013.9
20260507221036 24 292 4.8 19.3 0.00 0.03 0.00 18 1013.9
20260507220016 24 273 6.4 16.1 0.00 0.03 0.00 17 1014.1
20260507215016 24 263 4.8 19.3 0.00 0.03 0.00 17 1014.2
20260507214016 24 280 6.4 17.7 0.00 0.05 0.00 18 1014.4
20260507213016 23 279 11.3 25.7 0.00 0.08 0.00 19 1014.3
20260507212036 23 360 6.4 22.5 0.00 0.08 0.00 19 1014.5
20260507211016 23 315 8.0 33.8 0.00 0.08 0.00 19 1014.6
20260507210016 23 230 9.7 19.3 0.00 0.08 0.00 20 1014.9
20260507205017 23 259 8.0 19.3 0.00 0.08 0.00 20 1015.4
20260507204036 23 276 4.8 20.9 0.00 0.08 0.00 21 1015.4
20260507203016 23 312 6.4 19.3 0.00 0.08 0.00 21 1015.6
20260507202016 22 283 9.7 24.1 0.00 0.08 0.00 21 1015.9
20260507201016 22 297 6.4 17.7 0.00 0.08 0.00 22 1016.3
20260507200016 22 272 11.3 20.9 0.00 0.10 0.00 22 1016.5
20260507195015 22 271 9.7 17.7 0.00 0.10 0.00 22 1016.6
20260507194016 22 271 6.4 16.1 0.00 0.13 0.00 24 1017.1
20260507193016 22 289 8.0 19.3 0.00 0.13 0.00 25 1017.0
20260507192015 22 277 6.4 17.7 0.00 0.15 0.00 26 1017.2
20260507191015 22 288 6.4 14.5 0.00 0.18 0.00 27 1017.5
20260507190016 21 287 8.0 16.1 0.00 0.20 0.00 28 1017.9
20260507185015 21 289 11.3 22.5 0.00 0.23 0.00 27 1017.9
20260507184015 21 272 11.3 22.5 0.00 0.25 0.00 27 1018.0
20260507183016 20 273 12.9 24.1 0.00 0.28 0.00 29 1018.2
20260507182015 20 256 12.9 25.7 0.00 0.30 0.00 29 1018.3
20260507181136 20 274 9.7 27.4 0.00 0.33 0.00 31 1018.4
20260507180015 19 296 9.7 29.0 0.00 0.36 0.00 32 1018.5
20260507175015 18 291 12.9 29.0 0.00 0.38 0.00 34 1018.6
20260507174035 18 324 11.3 25.7 0.00 0.43 0.00 37 1018.6
20260507173055 18 278 14.5 27.4 0.00 0.46 0.00 38 1018.4
20260507172016 17 268 14.5 27.4 0.00 0.48 0.00 38 1018.7
20260507171015 17 266 14.5 24.1 0.00 0.51 0.00 40 1018.8
20260507170016 17 266 11.3 30.6 0.00 0.56 0.00 41 1018.9
20260507165015 16 266 16.1 30.6 0.00 0.58 0.00 41 1018.8
20260507164015 15 275 12.9 35.4 0.00 0.64 0.00 46 1019.1
20260507163015 15 278 14.5 25.7 0.00 0.66 0.00 48 1019.0
20260507162015 14 337 12.9 25.7 0.00 0.69 0.00 51 1019.1
20260507161035 14 268 12.9 27.4 0.00 0.74 0.00 50 1019.3
20260507160015 13 321 14.5 30.6 0.00 0.76 0.00 49 1019.4
20260507155015 13 336 16.1 33.8 0.00 0.79 0.00 50 1019.5
20260507154015 12 320 11.3 29.0 0.00 0.81 0.00 54 1019.4
20260507153015 12 256 16.1 29.0 0.00 0.84 0.00 58 1019.6
20260507152015 11 261 17.7 30.6 0.00 0.86 0.00 62 1019.6
20260507151056 10 264 9.7 27.4 0.00 0.89 0.00 69 1019.5
20260507150015 9 302 11.3 24.1 0.00 0.91 0.00 75 1019.4
20260507145015 8 299 11.3 25.7 0.00 0.94 0.00 77 1019.6
20260507144015 8 279 11.3 22.5 0.00 0.97 0.00 76 1019.6
20260507143015 7 272 11.3 27.4 0.00 0.99 0.00 76 1019.4
20260507142015 7 290 16.1 29.0 0.00 0.99 0.00 79 1019.5
20260507141015 6 355 11.3 25.7 0.00 1.02 0.00 82 1019.5
20260507140015 6 268 9.7 17.7 0.00 1.02 0.00 84 1019.4
20260507135015 5 259 6.4 17.7 0.00 1.02 0.00 86 1019.3
20260507134055 4 262 9.7 20.9 0.00 1.02 0.00 86 1019.0
20260507133035 3 272 9.7 19.3 0.00 1.02 0.00 87 1019.2
20260507132015 3 266 9.7 17.7 0.00 1.02 0.00 88 1019.0
20260507131014 2 277 4.8 16.1 0.00 1.02 0.00 88 1018.9
20260507130014 2 269 6.4 19.3 0.00 1.02 0.00 88 1019.0
20260507125036 1 263 6.4 14.5 0.00 1.02 0.00 89 1018.6
20260507124015 1 261 4.8 14.5 0.00 1.02 0.00 90 1018.4
20260507123015 1 256 8.0 16.1 0.00 1.02 0.00 91 1018.2
20260507122035 0 256 4.8 11.3 0.00 1.02 0.00 91 1018.2
20260507121015 0 250 4.8 11.3 0.00 1.02 0.00 91 1018.4
20260507120014 0 249 3.2 9.7 0.00 1.02 0.00 92 1018.1
20260507115015 0 230 3.2 8.0 0.00 1.02 0.00 91 1018.0
20260507114017 0 230 1.6 6.4 0.00 1.02 0.00 91 1018.2
20260507113035 0 236 3.2 8.0 0.00 1.02 0.00 91 1018.2
20260507112016 0 243 3.2 6.4 0.00 1.02 0.00 91 1018.3
20260507111016 0 242 1.6 4.8 0.00 1.02 0.00 90 1018.4
20260507110015 0 242 1.6 6.4 0.00 1.02 0.00 91 1018.3
20260507105014 0 254 3.2 8.0 0.00 1.02 0.00 90 1018.4
20260507104016 0 277 3.2 6.4 0.00 1.02 0.00 90 1018.5
20260507103017 0 253 3.2 9.7 0.00 1.02 0.00 91 1018.8
20260507102015 0 247 6.4 12.9 0.00 1.02 0.00 91 1018.7
20260507101117 0 254 4.8 14.5 0.00 1.02 0.00 92 1018.5
20260507100016 0 247 6.4 16.1 0.00 1.02 0.00 91 1018.6
20260507095016 0 0.0 3.2 0.00 1.02 0.00 91 1018.6
20260507094036 0 261 1.6 6.4 0.00 1.02 0.00 91 1018.5
20260507093016 0 0.0 3.2 0.00 1.02 0.00 91 1018.5
20260507092017 0 261 0.0 3.2 0.00 1.02 0.00 91 1018.7
20260507091015 0 261 1.6 4.8 0.00 1.02 0.00 91 1018.7
20260507090016 0 264 3.2 9.7 0.00 1.02 0.00 91 1018.7
20260507085016 0 251 3.2 6.4 0.00 1.02 0.00 91 1018.8
20260507084016 0 270 3.2 6.4 0.00 1.04 0.00 91 1018.9
20260507083016 0 253 3.2 4.8 0.00 1.04 0.00 91 1018.9
20260507082016 0 257 3.2 6.4 0.00 1.07 0.00 91 1019.2
20260507081016 0 263 3.2 6.4 0.00 1.09 0.00 90 1019.3
20260507080016 0 275 3.2 4.8 0.00 1.12 0.00 90 1019.4
20260507075016 1 0.0 3.2 0.00 1.19 0.00 90 1019.7
20260507074016 1 285 1.6 4.8 0.00 1.22 0.00 90 1019.5
20260507073016 1 258 3.2 9.7 0.00 1.22 0.00 91 1019.8
20260507072036 1 265 3.2 6.4 0.00 1.24 0.00 91 1019.8
20260507071016 1 307 1.6 4.8 0.00 1.24 0.00 91 1019.6
20260507070016 1 293 3.2 6.4 0.00 1.24 0.00 91 1019.6
20260507065016 1 242 0.0 4.8 0.00 1.24 0.00 90 1019.7
20260507064016 1 240 0.0 3.2 0.00 1.27 0.00 90 1019.8
20260507063016 2 240 0.0 3.2 0.00 1.27 0.00 90 1019.9
20260507062015 2 240 0.0 3.2 0.00 1.27 0.00 91 1020.1
20260507061016 2 237 1.6 6.4 0.00 1.27 0.00 91 1020.2
20260507060016 2 220 1.6 8.0 0.00 1.27 1.27 91 1020.2
20260507055015 2 225 4.8 9.7 0.00 1.27 1.27 92 1020.2
20260507054015 1 235 3.2 9.7 0.00 1.27 1.27 92 1019.9
20260507053015 1 0.0 0.0 0.00 1.27 1.27 91 1020.0
20260507052015 1 0.0 0.0 0.00 1.30 1.27 91 1020.1
20260507051015 1 0.0 0.0 0.00 1.30 1.27 91 1020.1
20260507050015 1 0.0 0.0 0.00 1.30 1.27 90 1020.2
20260507045035 1 0.0 0.0 0.00 1.30 1.27 90 1020.3
20260507044035 1 0.0 0.0 0.00 1.30 1.27 90 1020.4
20260507043016 1 0.0 0.0 0.00 1.30 1.27 90 1020.4
20260507042037 1 0.0 0.0 0.00 1.30 1.27 90 1020.1
20260507041017 1 0.0 0.0 0.00 1.30 1.27 90 1020.4
20260507040017 1 0.0 0.0 0.00 1.30 1.27 90 1020.3
20260507035015 2 0.0 0.0 0.00 1.30 1.27 89 1020.4
20260507034015 2 0.0 0.0 0.00 1.32 1.27 89 1020.3
20260507033015 2 0.0 0.0 0.00 1.35 1.27 89 1020.3
20260507032038 2 0.0 0.0 0.00 1.35 1.27 89 1020.4
20260507031016 2 0.0 0.0 0.00 1.37 1.27 89 1020.3
20260507030037 3 0.0 0.0 0.00 1.40 1.27 89 1020.3
20260507025016 3 0.0 0.0 0.00 1.42 1.27 89 1020.4
20260507024016 3 0.0 0.0 0.00 1.42 1.27 88 1020.4
20260507023016 3 236 0.0 4.8 0.00 1.42 1.27 88 1020.3
20260507022016 3 0.0 3.2 0.00 1.42 1.27 88 1020.2
20260507021017 4 211 0.0 4.8 0.00 1.42 1.27 88 1020.3
20260507020037 4 196 1.6 4.8 0.00 1.42 1.27 88 1020.4
20260507015016 4 0.0 0.0 0.00 1.42 1.27 87 1020.4